Location: Baix
(44.7118°N, 4.7648°E)
Time: 07:39:23
(UTC+00:00)

Vanguard 1 - Pass Details

Date: 26 November 2020
Orbit: 648 x 3834 km, 34.3° (Epoch: 21 January)

Event Time Altitude Azimuth Distance (km) Brightness Sun altitude
Rises 09:52:33 0° 271° (W) 5,005 13.4 20.7°
Reaches altitude 10° 09:55:31 10° 264° (W) 4,364 13.3 20.9°
Maximum altitude 10:07:18 42° 199° (SSW) 3,589 13.9 21.7°
Drops below altitude 10° 10:26:05 10° 138° (SE) 6,764 15.6 22.7°
Sets 10:32:13 0° 132° (SE) 7,940 15.6 23.0°
